[ hide orbit diagram ]
For accurate long-term ephemerides, please instead use our Horizons system.This orbit viewer was implemented using two-body methods, and hence should not be used for determining accurate long-term trajectories (over several years or decades) or planetary encounter circumstances.
Orbital Elements at Epoch 2459000.5 (2020-May-31.0) TDB
Reference: JPL 13 (heliocentric ecliptic J2000)
Element | Value | Uncertainty (1-sigma) | Units |
e | .07983293812739069 | 7.0018e-08 | |
a | 2.809868368767307 | 2.1776e-08 | au |
q | 2.585548321137394 | 2.0562e-07 | au |
i | .899550245794093 | 5.7914e-06 | deg |
node | 138.6103256609275 | 0.00040767 | deg |
peri | 252.519598607549 | 0.00040968 | deg |
M | 313.8193188336391 | 3.6771e-05 | deg |
tp | 2459221.191305469973 (2021-Jan-06.69130547) | 0.00017549 | TDB |
period | 1720.391903336901 4.71 | 1.9999e-05 5.475e-08 | d yr |
n | .209254646747487 | 2.4325e-09 | deg/d |
Q | 3.03418841639722 | 2.3515e-08 | au |
|
| | Orbit Determination Parameters
Additional Information
|
[ show covariance matrix ]
Physical Parameter Table
Parameter |
Symbol |
Value |
Units |
Sigma |
Reference |
Notes |
absolute magnitude |
H |
16.6 |
|
n/a |
MPO440248 |
|
|
245934 (2006 RT51) Discovered 2006-Sep-14 by Spacewatch at Kitt Peak |
Reference: 20100726/Numbers.arc | Last Updated: 2010-07-28 |
|
[ hide close-approach data ]
Close-Approach Data ...sorted by Date/Time (TDB)
|
Date/Time (TDB) |
Time Uncertainty (days_HH:MM) |
Body |
Nominal Distance (au) |
Minimum Distance (au) |
Maximum Distance (au) |
V-relative (km/s) |
V-infinity (km/s) |
JD (TDB) |
Time Uncertainty (minutes) |
Semi-major axis (km) |
Semi-minor axis (km) |
range-LOV angle (deg) |
N-sigma |
BP |
Orbit Ref. |
Reference |
Modified |
2000-Nov-29 22:51 |
00:01 |
Hygie |
0.0233818592204275 |
0.0233790279777526 |
0.023384690893753 |
3.3925833463647 |
3.39258285929301 |
2451878.451795890 |
1.10370870590714 |
239.349679725676 |
81.431736523337 |
-59.2834315092731 |
37580.2188288988 |
T |
13 |
CATAB v2.0f-lin.ifort 2020-Dec-18 00:10:38 |
2020-Dec-18 00:10 |
|
|